TimeEST,TemperatureF,Dew PointF,Humidity,Sea Level PressureIn,VisibilityMPH,Wind Direction,Wind SpeedMPH,Gust SpeedMPH,PrecipitationIn,Events,Conditions,WindDirDegrees,DateUTC
12:15 AM,35.6,15.1,43,30.15,10.0,North,3.5,-,N/A,,Clear,10,2013-02-21 05:15:00
12:35 AM,35.1,14.5,43,30.15,10.0,Calm,Calm,-,N/A,,Clear,0,2013-02-21 05:35:00
12:55 AM,32.9,17.4,53,30.14,10.0,Calm,Calm,-,N/A,,Clear,0,2013-02-21 05:55:00
1:15 AM,32.4,18.7,57,30.15,10.0,Calm,Calm,-,N/A,,Clear,0,2013-02-21 06:15:00
1:35 AM,32.7,16.0,50,30.14,10.0,North,4.6,-,N/A,,Clear,360,2013-02-21 06:35:00
1:55 AM,33.1,16.2,50,30.14,10.0,North,5.8,-,N/A,,Clear,350,2013-02-21 06:55:00
2:15 AM,32.4,16.2,51,30.15,10.0,NNW,3.5,-,N/A,,Clear,330,2013-02-21 07:15:00
2:35 AM,32.0,16.2,52,30.15,10.0,Calm,Calm,-,N/A,,Clear,0,2013-02-21 07:35:00
2:55 AM,29.8,18.3,62,30.15,10.0,Calm,Calm,-,N/A,,Clear,0,2013-02-21 07:55:00
3:15 AM,28.9,18.3,65,30.16,10.0,Calm,Calm,-,N/A,,Clear,0,2013-02-21 08:15:00
3:35 AM,28.4,17.4,63,30.16,10.0,Calm,Calm,-,N/A,,Clear,0,2013-02-21 08:35:00
3:55 AM,27.9,18.0,66,30.15,10.0,Calm,Calm,-,N/A,,Clear,0,2013-02-21 08:55:00
4:15 AM,26.4,17.8,70,30.15,10.0,Calm,Calm,-,N/A,,Clear,0,2013-02-21 09:15:00
4:35 AM,27.5,17.4,66,30.15,10.0,Calm,Calm,-,N/A,,Clear,0,2013-02-21 09:35:00
4:55 AM,25.7,17.6,71,30.16,10.0,Calm,Calm,-,N/A,,Clear,0,2013-02-21 09:55:00
5:15 AM,26.1,17.4,70,30.17,10.0,Calm,Calm,-,N/A,,Clear,0,2013-02-21 10:15:00
5:35 AM,24.4,18.3,78,30.18,10.0,Calm,Calm,-,N/A,,Clear,0,2013-02-21 10:35:00
5:55 AM,25.0,18.3,76,30.19,10.0,Calm,Calm,-,N/A,,Clear,0,2013-02-21 10:55:00
6:15 AM,23.2,18.3,82,30.19,10.0,Calm,Calm,-,N/A,,Clear,0,2013-02-21 11:15:00
6:55 AM,22.8,18.1,82,30.21,10.0,Calm,Calm,-,N/A,,Clear,0,2013-02-21 11:55:00
7:15 AM,23.0,18.0,81,30.21,10.0,Calm,Calm,-,N/A,,Clear,0,2013-02-21 12:15:00
7:35 AM,24.1,18.5,79,30.20,10.0,Calm,Calm,-,N/A,,Clear,0,2013-02-21 12:35:00
7:55 AM,26.1,20.8,81,30.21,10.0,Calm,Calm,-,N/A,,Clear,0,2013-02-21 12:55:00
8:15 AM,29.7,20.5,69,30.21,10.0,Calm,Calm,-,N/A,,Clear,0,2013-02-21 13:15:00
8:35 AM,32.2,21.9,66,30.22,10.0,Calm,Calm,-,N/A,,Clear,0,2013-02-21 13:35:00
8:55 AM,35.8,19.8,52,30.23,10.0,Calm,Calm,-,N/A,,Clear,0,2013-02-21 13:55:00
9:15 AM,37.6,16.3,42,30.22,10.0,Calm,Calm,-,N/A,,Clear,0,2013-02-21 14:15:00
9:35 AM,38.8,16.0,40,30.23,10.0,WSW,3.5,-,N/A,,Clear,250,2013-02-21 14:35:00
9:55 AM,41.0,15.3,35,30.22,10.0,Calm,Calm,-,N/A,,Clear,0,2013-02-21 14:55:00
10:15 AM,42.6,16.0,34,30.22,10.0,WNW,5.8,-,N/A,,Clear,300,2013-02-21 15:15:00
10:35 AM,42.8,14.7,32,30.22,10.0,NW,3.5,-,N/A,,Clear,320,2013-02-21 15:35:00
10:55 AM,44.8,14.9,30,30.22,10.0,Calm,Calm,-,N/A,,Clear,0,2013-02-21 15:55:00
11:15 AM,45.0,14.4,29,30.21,10.0,Calm,Calm,-,N/A,,Clear,0,2013-02-21 16:15:00
11:35 AM,47.7,15.4,28,30.21,10.0,SW,4.6,-,N/A,,Clear,230,2013-02-21 16:35:00
11:55 AM,48.4,15.8,27,30.21,10.0,South,6.9,-,N/A,,Clear,180,2013-02-21 16:55:00
12:15 PM,49.6,16.0,26,30.20,10.0,SSE,3.5,-,N/A,,Clear,150,2013-02-21 17:15:00
12:35 PM,50.9,15.8,25,30.19,10.0,South,4.6,-,N/A,,Clear,180,2013-02-21 17:35:00
12:55 PM,51.3,15.8,25,30.18,10.0,Calm,Calm,-,N/A,,Clear,0,2013-02-21 17:55:00
1:15 PM,53.2,16.9,24,30.17,10.0,ESE,3.5,-,N/A,,Clear,120,2013-02-21 18:15:00
1:35 PM,55.0,18.1,24,30.15,10.0,ESE,5.8,-,N/A,,Clear,120,2013-02-21 18:35:00
1:55 PM,54.3,17.2,23,30.14,10.0,South,5.8,-,N/A,,Clear,170,2013-02-21 18:55:00
2:15 PM,54.3,15.3,21,30.13,10.0,Calm,Calm,-,N/A,,Clear,0,2013-02-21 19:15:00
2:35 PM,55.9,16.5,21,30.13,10.0,SSE,3.5,-,N/A,,Clear,150,2013-02-21 19:35:00
2:55 PM,57.2,16.7,21,30.11,10.0,SSE,3.5,-,N/A,,Clear,160,2013-02-21 19:55:00
3:15 PM,57.6,16.9,20,30.12,10.0,South,3.5,-,N/A,,Clear,170,2013-02-21 20:15:00
3:35 PM,58.1,17.1,20,30.13,10.0,SSW,3.5,-,N/A,,Clear,200,2013-02-21 20:35:00
3:55 PM,56.3,16.0,21,30.12,10.0,SE,3.5,-,N/A,,Clear,140,2013-02-21 20:55:00
4:15 PM,56.8,15.4,20,30.13,10.0,Calm,Calm,-,N/A,,Clear,0,2013-02-21 21:15:00
4:35 PM,57.2,16.2,20,30.14,10.0,Calm,Calm,-,N/A,,Clear,0,2013-02-21 21:35:00
4:55 PM,56.7,14.7,19,30.14,10.0,Calm,Calm,-,N/A,,Clear,0,2013-02-21 21:55:00
5:15 PM,55.2,18.5,24,30.15,10.0,Calm,Calm,-,N/A,,Clear,0,2013-02-21 22:15:00
5:35 PM,52.9,20.5,28,30.15,10.0,Calm,Calm,-,N/A,,Clear,0,2013-02-21 22:35:00
5:55 PM,49.1,25.2,39,30.17,10.0,Calm,Calm,-,N/A,,Clear,0,2013-02-21 22:55:00
6:15 PM,48.2,20.3,33,30.17,10.0,Calm,Calm,-,N/A,,Clear,0,2013-02-21 23:15:00
6:35 PM,46.0,24.6,43,30.15,10.0,Calm,Calm,-,N/A,,Clear,0,2013-02-21 23:35:00
6:55 PM,49.1,19.0,30,30.18,10.0,East,3.5,-,N/A,,Clear,80,2013-02-21 23:55:00
7:15 PM,48.2,20.8,34,30.20,10.0,Calm,Calm,-,N/A,,Clear,0,2013-02-22 00:15:00
7:35 PM,45.7,20.8,37,30.20,10.0,Calm,Calm,-,N/A,,Clear,0,2013-02-22 00:35:00
7:55 PM,47.1,19.8,34,30.20,10.0,ENE,4.6,-,N/A,,Clear,70,2013-02-22 00:55:00
8:15 PM,46.6,22.3,38,30.20,10.0,Calm,Calm,-,N/A,,Clear,0,2013-02-22 01:15:00
8:35 PM,46.9,19.8,34,30.20,10.0,Calm,Calm,-,N/A,,Clear,0,2013-02-22 01:35:00
8:55 PM,46.0,19.8,35,30.20,10.0,ENE,4.6,-,N/A,,Clear,60,2013-02-22 01:55:00
9:15 PM,46.8,19.6,34,30.20,10.0,East,5.8,-,N/A,,Clear,90,2013-02-22 02:15:00
9:35 PM,46.2,20.1,35,30.23,10.0,Calm,Calm,-,N/A,,Clear,0,2013-02-22 02:35:00
10:15 PM,44.2,20.1,38,30.25,10.0,Calm,Calm,-,N/A,,Clear,0,2013-02-22 03:15:00
10:35 PM,43.2,23.9,47,30.24,10.0,Calm,Calm,-,N/A,,Clear,0,2013-02-22 03:35:00
10:55 PM,44.4,21.7,41,30.23,10.0,ENE,4.6,-,N/A,,Clear,70,2013-02-22 03:55:00
11:15 PM,45.1,19.9,37,30.25,10.0,East,4.6,-,N/A,,Scattered Clouds,100,2013-02-22 04:15:00
11:35 PM,44.8,21.0,39,30.28,10.0,Calm,Calm,-,N/A,,Mostly Cloudy,0,2013-02-22 04:35:00
11:55 PM,45.5,20.1,36,30.29,10.0,East,5.8,-,N/A,,Overcast,90,2013-02-22 04:55:00